カタログに戻る

CZ-6A DEB

運用中PO
NORAD 61299·DEBRIS·🇨🇳 China

打ち上げ Aug 6, 2024 から Taiyuan Satellite Launch Center

Loading…

次のパス (今後24時間)

TLE

最新Source: Space-Track

元期: Sep 14, 2026, 10:44 UTC

1 61299U 24140TL  26257.44767541  .00001536  00000-0  60076-3 0  9995
2 61299  88.9839 262.4683 0022287 249.4987 110.3816 14.28974951106567

AllMySatでCZ-6A DEBをリアルタイム追跡

Download on the App Store